Location: Arnolds Mill
(42.3415°N, 73.5951°W)
Time: 10:11:05
(UTC+00:00)

BlueWalker 3 - Pass Details

Date: 22 June 2024
Orbit: 480 x 492 km, 53.2° (Epoch: 13 July)

Event Time Altitude Azimuth Distance (km) Brightness Sun altitude
Rises 04:29:00 0° 302° (WNW) 2,540 6.1 -23.9°
Reaches altitude 10° 04:31:52 10° 326° (NW) 1,659 5.4 -24.0°
Maximum altitude 04:34:12 16° 4° (N) 1,347 5.0 -24.0°
Drops below altitude 10° 04:36:32 10° 43° (NE) 1,658 5.1 -24.1°
Sets 04:39:24 0° 67° (ENE) 2,537 5.8 -24.1°
